User: anonymous   Login
Location: Bridgewater Hill Observatory
(43.5992°N, 72.6989°W)
Time: 20:11:06
(UTC-04:00)
Language:

Cosmos 1452 Rocket - Orbit

View from above orbital plane
View from above orbital plane
View from above satellite
View from above satellite

Ground track
Ground track

The orbit data is extracted from the following two-line orbital elements,

1 13992U 83031B   16270.75115883  .00000092  00000-0  40607-4 0  9995
2 13992  74.0524 130.3002 0005160 188.6711 238.5729 14.36053928750998
Epoch (UTC): 26 September 2016 18:01:40
Eccentricity: 0.0005160
inclination: 74.0524°
perigee height: 768 km
apogee height: 775 km
right ascension of ascending node: 130.3002°
argument of perigee: 188.6711°
revolutions per day: 14.36053928
mean anomaly at epoch: 238.5729°
orbit number at epoch: 75099

The dashed part of the orbit path shows where the satellite is in the earth's shadow,  

DLR